TimeCDT,TemperatureF,Dew PointF,Humidity,Sea Level PressureIn,VisibilityMPH,Wind Direction,Wind SpeedMPH,Gust SpeedMPH,PrecipitationIn,Events,Conditions,WindDirDegrees,DateUTC
12:53 AM,82.9,54.0,37,29.81,10.0,SSE,17.3,-,N/A,,Clear,150,2013-07-06 05:53:00
1:53 AM,81.0,54.0,39,29.83,10.0,SSE,13.8,-,N/A,,Clear,150,2013-07-06 06:53:00
2:53 AM,78.1,54.0,43,29.82,10.0,SE,12.7,-,N/A,,Clear,140,2013-07-06 07:53:00
3:53 AM,75.9,54.0,46,29.81,10.0,SSE,10.4,-,N/A,,Clear,150,2013-07-06 08:53:00
4:53 AM,73.9,54.0,50,29.82,10.0,SSE,8.1,-,N/A,,Clear,150,2013-07-06 09:53:00
5:53 AM,72.0,55.0,55,29.83,10.0,SE,4.6,-,N/A,,Clear,140,2013-07-06 10:53:00
6:53 AM,71.1,55.0,57,29.85,10.0,ESE,6.9,-,N/A,,Clear,110,2013-07-06 11:53:00
7:53 AM,77.0,57.0,50,29.84,10.0,SSE,8.1,-,N/A,,Clear,160,2013-07-06 12:53:00
8:53 AM,82.9,59.0,44,29.85,10.0,South,13.8,-,N/A,,Clear,190,2013-07-06 13:53:00
9:53 AM,87.1,59.0,39,29.86,10.0,SW,15.0,-,N/A,,Clear,220,2013-07-06 14:53:00
10:53 AM,91.9,57.9,32,29.83,10.0,South,16.1,-,N/A,,Clear,190,2013-07-06 15:53:00
11:53 AM,95.0,55.9,27,29.82,10.0,SSW,13.8,-,N/A,,Clear,200,2013-07-06 16:53:00
12:53 PM,95.0,55.0,26,29.82,10.0,South,16.1,24.2,N/A,,Clear,190,2013-07-06 17:53:00
1:53 PM,97.0,55.0,24,29.80,10.0,South,17.3,25.3,N/A,,Clear,180,2013-07-06 18:53:00
2:53 PM,99.0,54.0,22,29.78,10.0,South,16.1,25.3,N/A,,Clear,190,2013-07-06 19:53:00
3:53 PM,100.0,51.1,19,29.78,10.0,South,19.6,29.9,N/A,,Clear,190,2013-07-06 20:53:00
4:53 PM,99.0,50.0,19,29.77,10.0,SSE,21.9,28.8,N/A,,Clear,150,2013-07-06 21:53:00
5:53 PM,99.0,51.1,20,29.75,10.0,SSE,20.7,27.6,N/A,,Clear,160,2013-07-06 22:53:00
6:53 PM,97.0,52.0,22,29.75,10.0,SE,19.6,25.3,N/A,,Clear,140,2013-07-06 23:53:00
7:53 PM,95.0,51.1,22,29.76,10.0,SE,18.4,-,N/A,,Clear,140,2013-07-07 00:53:00
8:53 PM,91.0,52.0,26,29.78,10.0,SE,13.8,-,N/A,,Clear,140,2013-07-07 01:53:00
9:53 PM,87.1,53.1,31,29.81,10.0,SE,12.7,-,N/A,,Clear,140,2013-07-07 02:53:00
10:53 PM,86.0,54.0,33,29.83,10.0,SE,12.7,-,N/A,,Clear,130,2013-07-07 03:53:00
11:53 PM,86.0,55.0,35,29.83,10.0,SE,17.3,-,N/A,,Clear,140,2013-07-07 04:53:00